Location: Gorze? G�rny
(49.8500°N, 19.5000°E)
Time: 04:13:46
(UTC+00:00)

NOSS 3-3 (C) - Pass Details

Date: 13 May 2021
Orbit: 806 x 1406 km, 63.4° (Epoch: 14 June)

Event Time Altitude Azimuth Distance (km) Brightness Sun altitude
Rises 19:53:29 0° 232° (SW) 3,413 6.9 -12.5°
Reaches altitude 10° 19:55:51 10° 235° (SW) 2,531 6.2 -12.7°
Maximum altitude 20:01:41 67° 318° (NW) 1,036 4.4 -13.3°
Drops below altitude 10° 20:08:27 10° 41° (NE) 2,917 6.6 -14.0°
Sets 20:11:21 0° 45° (NE) 3,972 7.3 -14.2°
